"Sample Date","Sample Time","Sensor Name","Sample Value","Units","Flow Rate","Sample Interval","Sample Volume","Laser Status","Number Channels","Micron Size 0","Counts/Channel 0","Micron Size 1","Counts/Channel 1","Micron Size 2","Counts/Channel 2","Micron Size 3","Counts/Channel 3","Micron Size 4","Counts/Channel 4","Micron Size 5","Counts/Channel 5","Micron Size 6","Counts/Channel 6","Micron Size 7","Counts/Channel 7","Micron Size 8","Counts/Channel 8","Micron Size 9","Counts/Channel 9","Micron Size 10","Counts/Channel 10","Micron Size 11","Counts/Channel 11","Micron Size 12","Counts/Channel 12","Micron Size 13","Counts/Channel 13","Micron Size 14","Counts/Channel 14","Micron Size 15","Counts/Channel 15","Micron Size 16","Counts/Channel 16","Micron Size 17","Counts/Channel 17","Micron Size 18","Counts/Channel 18","Micron Size 19","Counts/Channel 19","Micron Size 20","Counts/Channel 20","Micron Size 21","Counts/Channel 21","Micron Size 22","Counts/Channel 22","Micron Size 23","Counts/Channel 23","Micron Size 24","Counts/Channel 24","Micron Size 25","Counts/Channel 25","Micron Size 26","Counts/Channel 26","Micron Size 27","Counts/Channel 27","Micron Size 28","Counts/Channel 28","Micron Size 29","Counts/Channel 29","Micron Size 30","Counts/Channel 30","Micron Size 31","Counts/Channel 31"
"07/08/06","22:00:01","AMMA06",30147.000,"cc",28339.902,6.00,2833.991,1,6,0.100,17056.000,0.200,11526.000,0.300,1296.000,0.500,179.000,1.000,90.000,5.000,0
"07/08/06","22:00:07","AMMA06",29988.000,"cc",28289.369,6.00,2828.937,1,6,0.100,16872.000,0.200,11641.000,0.300,1246.000,0.500,148.000,1.000,81.000,5.000,0
"07/08/06","22:00:13","AMMA06",30973.000,"cc",28275.356,6.00,2827.536,1,6,0.100,17431.000,0.200,12079.000,0.300,1251.000,0.500,134.000,1.000,78.000,5.000,0
"07/08/06","22:00:19","AMMA06",31562.000,"cc",28335.707,6.00,2833.571,1,6,0.100,17548.000,0.200,12353.000,0.300,1376.000,0.500,172.000,1.000,113.000,5.000,0
"07/08/06","22:00:25","AMMA06",31658.000,"cc",28323.783,6.00,2832.378,1,6,0.100,17673.000,0.200,12287.000,0.300,1368.000,0.500,213.000,1.000,117.000,5.000,0
"07/08/06","22:00:31","AMMA06",31809.000,"cc",28296.881,6.00,2829.688,1,6,0.100,17528.000,0.200,12496.000,0.300,1452.000,0.500,213.000,1.000,120.000,5.000,0
"07/08/06","22:00:37","AMMA06",31626.000,"cc",28347.959,6.00,2834.796,1,6,0.100,17410.000,0.200,12508.000,0.300,1421.000,0.500,189.000,1.000,98.000,5.000,0
"07/08/06","22:00:43","AMMA06",32136.000,"cc",28246.861,6.00,2824.686,1,6,0.100,17756.000,0.200,12844.000,0.300,1314.000,0.500,150.000,1.000,72.000,5.000,0
"07/08/06","22:00:49","AMMA06",31834.000,"cc",28338.441,6.00,2833.844,1,6,0.100,17591.000,0.200,12690.000,0.300,1331.000,0.500,150.000,1.000,72.000,5.000,0
"07/08/06","22:00:55","AMMA06",31517.000,"cc",28329.479,6.00,2832.948,1,6,0.100,17596.000,0.200,12445.000,0.300,1283.000,0.500,130.000,1.000,63.000,5.000,0
"07/08/06","22:01:01","AMMA06",31608.000,"cc",28300.438,6.00,2830.044,1,6,0.100,17560.000,0.200,12611.000,0.300,1238.000,0.500,133.000,1.000,66.000,5.000,0
"07/08/06","22:01:07","AMMA06",31526.000,"cc",28290.955,6.00,2829.096,1,6,0.100,17506.000,0.200,12528.000,0.300,1280.000,0.500,128.000,1.000,84.000,5.000,0
"07/08/06","22:01:13","AMMA06",32060.000,"cc",28329.908,6.00,2832.991,1,6,0.100,17838.000,0.200,12670.000,0.300,1316.000,0.500,164.000,1.000,72.000,5.000,0
"07/08/06","22:01:19","AMMA06",32455.000,"cc",28332.494,6.00,2833.250,1,6,0.100,18072.000,0.200,12756.000,0.300,1350.000,0.500,182.000,1.000,95.000,5.000,0
"07/08/06","22:01:25","AMMA06",31876.000,"cc",28361.354,6.00,2836.136,1,6,0.100,17641.000,0.200,12606.000,0.300,1369.000,0.500,174.000,1.000,86.000,5.000,0
"07/08/06","22:01:31","AMMA06",31459.000,"cc",28312.025,6.00,2831.203,1,6,0.100,17559.000,0.200,12393.000,0.300,1275.000,0.500,146.000,1.000,86.000,5.000,0
"07/08/06","22:01:37","AMMA06",31813.000,"cc",28289.316,6.00,2828.932,1,6,0.100,17724.000,0.200,12508.000,0.300,1321.000,0.500,154.000,1.000,106.000,5.000,0
"07/08/06","22:01:43","AMMA06",31247.000,"cc",28359.121,6.00,2835.912,1,6,0.100,17331.000,0.200,12453.000,0.300,1266.000,0.500,129.000,1.000,68.000,5.000,0
"07/08/06","22:01:49","AMMA06",31896.000,"cc",28275.342,6.00,2827.534,1,6,0.100,17747.000,0.200,12493.000,0.300,1389.000,0.500,168.000,1.000,99.000,5.000,0
"07/08/06","22:01:55","AMMA06",31941.000,"cc",28283.008,6.00,2828.301,1,6,0.100,17810.000,0.200,12381.000,0.300,1371.000,0.500,254.000,1.000,125.000,5.000,0
"07/08/06","22:02:01","AMMA06",31815.000,"cc",28326.430,6.00,2832.643,1,6,0.100,17676.000,0.200,12504.000,0.300,1383.000,0.500,159.000,1.000,93.000,5.000,0
"07/08/06","22:02:07","AMMA06",31764.000,"cc",28357.223,6.00,2835.722,1,6,0.100,17498.000,0.200,12712.000,0.300,1300.000,0.500,163.000,1.000,91.000,5.000,0
"07/08/06","22:02:13","AMMA06",31643.000,"cc",28272.494,6.00,2827.250,1,6,0.100,17649.000,0.200,12483.000,0.300,1261.000,0.500,166.000,1.000,84.000,5.000,0
"07/08/06","22:02:19","AMMA06",31764.000,"cc",28310.400,6.00,2831.040,1,6,0.100,17848.000,0.200,12359.000,0.300,1320.000,0.500,149.000,1.000,88.000,5.000,0
"07/08/06","22:02:25","AMMA06",31834.000,"cc",28369.623,6.00,2836.962,1,6,0.100,17653.000,0.200,12651.000,0.300,1288.000,0.500,155.000,1.000,87.000,5.000,0
"07/08/06","22:02:31","AMMA06",32161.000,"cc",28252.025,6.00,2825.203,1,6,0.100,17969.000,0.200,12637.000,0.300,1301.000,0.500,170.000,1.000,84.000,5.000,0
"07/08/06","22:02:37","AMMA06",31708.000,"cc",28329.773,6.00,2832.978,1,6,0.100,17783.000,0.200,12389.000,0.300,1289.000,0.500,140.000,1.000,107.000,5.000,0
"07/08/06","22:02:43","AMMA06",31865.000,"cc",28305.664,6.00,2830.567,1,6,0.100,17650.000,0.200,12756.000,0.300,1251.000,0.500,134.000,1.000,74.000,5.000,0
"07/08/06","22:02:49","AMMA06",31961.000,"cc",28323.731,6.00,2832.373,1,6,0.100,17879.000,0.200,12517.000,0.300,1344.000,0.500,140.000,1.000,81.000,5.000,0
"07/08/06","22:02:55","AMMA06",32250.000,"cc",28351.207,6.00,2835.121,1,6,0.100,17981.000,0.200,12851.000,0.300,1227.000,0.500,120.000,1.000,71.000,5.000,0
"07/08/06","22:03:01","AMMA06",32245.000,"cc",28299.158,6.00,2829.916,1,6,0.100,17906.000,0.200,12791.000,0.300,1293.000,0.500,166.000,1.000,89.000,5.000,0
"07/08/06","22:03:07","AMMA06",32275.000,"cc",28347.586,6.00,2834.759,1,6,0.100,17911.000,0.200,12765.000,0.300,1363.000,0.500,154.000,1.000,82.000,5.000,0
"07/08/06","22:03:13","AMMA06",32013.000,"cc",28319.391,6.00,2831.939,1,6,0.100,17834.000,0.200,12696.000,0.300,1258.000,0.500,152.000,1.000,73.000,5.000,0
"07/08/06","22:03:19","AMMA06",32231.000,"cc",28345.746,6.00,2834.575,1,6,0.100,17843.000,0.200,12778.000,0.300,1330.000,0.500,177.000,1.000,103.000,5.000,0
"07/08/06","22:03:25","AMMA06",32472.000,"cc",28281.186,6.00,2828.119,1,6,0.100,17844.000,0.200,13037.000,0.300,1338.000,0.500,174.000,1.000,79.000,5.000,0
"07/08/06","22:03:31","AMMA06",32136.000,"cc",28279.037,6.00,2827.904,1,6,0.100,17623.000,0.200,12975.000,0.300,1310.000,0.500,148.000,1.000,80.000,5.000,0
"07/08/06","22:03:37","AMMA06",32149.000,"cc",28308.662,6.00,2830.867,1,6,0.100,17654.000,0.200,12969.000,0.300,1313.000,0.500,142.000,1.000,71.000,5.000,0
"07/08/06","22:03:43","AMMA06",32624.000,"cc",28332.938,6.00,2833.294,1,6,0.100,17806.000,0.200,13207.000,0.300,1370.000,0.500,164.000,1.000,77.000,5.000,0
"07/08/06","22:03:49","AMMA06",32621.000,"cc",28324.393,6.00,2832.440,1,6,0.100,17957.000,0.200,13010.000,0.300,1343.000,0.500,201.000,1.000,110.000,5.000,0
"07/08/06","22:03:55","AMMA06",33001.000,"cc",28326.586,6.00,2832.659,1,6,0.100,18104.000,0.200,13170.000,0.300,1428.000,0.500,191.000,1.000,108.000,5.000,0
"07/08/06","22:04:01","AMMA06",32769.000,"cc",28336.742,6.00,2833.674,1,6,0.100,18041.000,0.200,13149.000,0.300,1317.000,0.500,178.000,1.000,84.000,5.000,0
"07/08/06","22:04:07","AMMA06",33180.000,"cc",28363.168,6.00,2836.317,1,6,0.100,18359.000,0.200,13029.000,0.300,1422.000,0.500,241.000,1.000,129.000,5.000,0
"07/08/06","22:04:13","AMMA06",33044.000,"cc",28269.746,6.00,2826.975,1,6,0.100,18111.000,0.200,13138.000,0.300,1458.000,0.500,212.000,1.000,125.000,5.000,0
"07/08/06","22:04:19","AMMA06",32812.000,"cc",28269.775,6.00,2826.978,1,6,0.100,17916.000,0.200,13283.000,0.300,1345.000,0.500,177.000,1.000,91.000,5.000,0
"07/08/06","22:04:25","AMMA06",32112.000,"cc",28340.914,6.00,2834.092,1,6,0.100,17960.000,0.200,12723.000,0.300,1245.000,0.500,116.000,1.000,68.000,5.000,0
"07/08/06","22:04:31","AMMA06",31934.000,"cc",28328.551,6.00,2832.855,1,6,0.100,17809.000,0.200,12711.000,0.300,1226.000,0.500,107.000,1.000,81.000,5.000,0
"07/08/06","22:04:37","AMMA06",32373.000,"cc",28315.635,6.00,2831.564,1,6,0.100,18117.000,0.200,12723.000,0.300,1321.000,0.500,134.000,1.000,78.000,5.000,0
"07/08/06","22:04:43","AMMA06",32770.000,"cc",28320.172,6.00,2832.017,1,6,0.100,18244.000,0.200,12853.000,0.300,1392.000,0.500,182.000,1.000,99.000,5.000,0
"07/08/06","22:04:49","AMMA06",32576.000,"cc",28283.170,6.00,2828.317,1,6,0.100,17907.000,0.200,13111.000,0.300,1314.000,0.500,160.000,1.000,84.000,5.000,0
"07/08/06","22:04:55","AMMA06",33204.000,"cc",28332.139,6.00,2833.214,1,6,0.100,18312.000,0.200,13058.000,0.300,1504.000,0.500,230.000,1.000,100.000,5.000,0
"07/08/06","22:05:01","AMMA06",33431.000,"cc",28378.414,6.00,2837.842,1,6,0.100,18445.000,0.200,12993.000,0.300,1594.000,0.500,271.000,1.000,128.000,5.000,0
"07/08/06","22:05:07","AMMA06",32964.000,"cc",28294.410,6.00,2829.441,1,6,0.100,18075.000,0.200,13162.000,0.300,1399.000,0.500,218.000,1.000,110.000,5.000,0
"07/08/06","22:05:13","AMMA06",33055.000,"cc",28284.756,6.00,2828.476,1,6,0.100,18255.000,0.200,12973.000,0.300,1485.000,0.500,241.000,1.000,101.000,5.000,0
"07/08/06","22:05:19","AMMA06",32831.000,"cc",28340.336,6.00,2834.034,1,6,0.100,18121.000,0.200,12971.000,0.300,1434.000,0.500,207.000,1.000,98.000,5.000,0
"07/08/06","22:05:25","AMMA06",32586.000,"cc",28306.266,6.00,2830.627,1,6,0.100,17774.000,0.200,13204.000,0.300,1372.000,0.500,141.000,1.000,95.000,5.000,0
"07/08/06","22:05:31","AMMA06",32590.000,"cc",28311.973,6.00,2831.198,1,6,0.100,17799.000,0.200,13098.000,0.300,1458.000,0.500,148.000,1.000,87.000,5.000,0
"07/08/06","22:05:37","AMMA06",32999.000,"cc",28295.252,6.00,2829.525,1,6,0.100,18085.000,0.200,13243.000,0.300,1427.000,0.500,162.000,1.000,82.000,5.000,0
"07/08/06","22:05:43","AMMA06",32711.000,"cc",28336.830,6.00,2833.683,1,6,0.100,18002.000,0.200,13129.000,0.300,1338.000,0.500,151.000,1.000,91.000,5.000,0
"07/08/06","22:05:49","AMMA06",32733.000,"cc",28319.385,6.00,2831.939,1,6,0.100,18133.000,0.200,13032.000,0.300,1320.000,0.500,147.000,1.000,101.000,5.000,0
"07/08/06","22:05:55","AMMA06",32604.000,"cc",28304.791,6.00,2830.479,1,6,0.100,17969.000,0.200,13094.000,0.300,1326.000,0.500,141.000,1.000,74.000,5.000,0
"07/08/06","22:06:01","AMMA06",32648.000,"cc",28339.873,6.00,2833.988,1,6,0.100,17909.000,0.200,13158.000,0.300,1363.000,0.500,137.000,1.000,81.000,5.000,0
"07/08/06","22:06:07","AMMA06",32563.000,"cc",28302.588,6.00,2830.259,1,6,0.100,17809.000,0.200,13190.000,0.300,1341.000,0.500,149.000,1.000,74.000,5.000,0
"07/08/06","22:06:13","AMMA06",32690.000,"cc",28343.602,6.00,2834.360,1,6,0.100,17949.000,0.200,13174.000,0.300,1331.000,0.500,140.000,1.000,96.000,5.000,0
"07/08/06","22:06:19","AMMA06",32738.000,"cc",28297.627,6.00,2829.763,1,6,0.100,17869.000,0.200,13168.000,0.300,1416.000,0.500,183.000,1.000,102.000,5.000,0
"07/08/06","22:06:25","AMMA06",32605.000,"cc",28370.268,6.00,2837.027,1,6,0.100,17830.000,0.200,13039.000,0.300,1462.000,0.500,173.000,1.000,101.000,5.000,0
"07/08/06","22:06:31","AMMA06",32627.000,"cc",28349.190,6.00,2834.919,1,6,0.100,17962.000,0.200,12985.000,0.300,1434.000,0.500,155.000,1.000,91.000,5.000,0
"07/08/06","22:06:37","AMMA06",33356.000,"cc",28281.756,6.00,2828.176,1,6,0.100,18081.000,0.200,13352.000,0.300,1558.000,0.500,217.000,1.000,148.000,5.000,0
"07/08/06","22:06:43","AMMA06",32678.000,"cc",28287.332,6.00,2828.733,1,6,0.100,18075.000,0.200,12996.000,0.300,1357.000,0.500,159.000,1.000,91.000,5.000,0
"07/08/06","22:06:49","AMMA06",32803.000,"cc",28309.203,6.00,2830.920,1,6,0.100,18277.000,0.200,12840.000,0.300,1459.000,0.500,133.000,1.000,94.000,5.000,0
"07/08/06","22:06:55","AMMA06",32801.000,"cc",28336.893,6.00,2833.690,1,6,0.100,18490.000,0.200,12689.000,0.300,1381.000,0.500,153.000,1.000,88.000,5.000,0
"07/08/06","22:07:01","AMMA06",32674.000,"cc",28312.637,6.00,2831.264,1,6,0.100,18273.000,0.200,12761.000,0.300,1385.000,0.500,168.000,1.000,87.000,5.000,0
"07/08/06","22:07:07","AMMA06",32159.000,"cc",28300.332,6.00,2830.033,1,6,0.100,18038.000,0.200,12512.000,0.300,1367.000,0.500,148.000,1.000,94.000,5.000,0
"07/08/06","22:07:13","AMMA06",32666.000,"cc",28322.789,6.00,2832.279,1,6,0.100,18151.000,0.200,12798.000,0.300,1433.000,0.500,175.000,1.000,109.000,5.000,0
"07/08/06","22:07:19","AMMA06",32975.000,"cc",28341.600,6.00,2834.160,1,6,0.100,18419.000,0.200,12857.000,0.300,1428.000,0.500,171.000,1.000,100.000,5.000,0
"07/08/06","22:07:25","AMMA06",32528.000,"cc",28310.076,6.00,2831.008,1,6,0.100,18236.000,0.200,12764.000,0.300,1280.000,0.500,158.000,1.000,90.000,5.000,0
"07/08/06","22:07:31","AMMA06",33220.000,"cc",28274.023,6.00,2827.403,1,6,0.100,18802.000,0.200,12721.000,0.300,1394.000,0.500,193.000,1.000,110.000,5.000,0
"07/08/06","22:07:37","AMMA06",32437.000,"cc",28318.350,6.00,2831.835,1,6,0.100,18276.000,0.200,12596.000,0.300,1302.000,0.500,167.000,1.000,96.000,5.000,0
"07/08/06","22:07:43","AMMA06",32389.000,"cc",28346.445,6.00,2834.645,1,6,0.100,18139.000,0.200,12657.000,0.300,1354.000,0.500,155.000,1.000,84.000,5.000,0
"07/08/06","22:07:49","AMMA06",32062.000,"cc",28273.436,6.00,2827.344,1,6,0.100,18120.000,0.200,12446.000,0.300,1279.000,0.500,131.000,1.000,86.000,5.000,0
"07/08/06","22:07:55","AMMA06",32170.000,"cc",28315.973,6.00,2831.597,1,6,0.100,18403.000,0.200,12204.000,0.300,1315.000,0.500,163.000,1.000,85.000,5.000,0
"07/08/06","22:08:01","AMMA06",32432.000,"cc",28310.850,6.00,2831.085,1,6,0.100,18382.000,0.200,12380.000,0.300,1398.000,0.500,182.000,1.000,90.000,5.000,0
"07/08/06","22:08:07","AMMA06",31965.000,"cc",28360.152,6.00,2836.015,1,6,0.100,18277.000,0.200,12095.000,0.300,1321.000,0.500,164.000,1.000,108.000,5.000,0
"07/08/06","22:08:13","AMMA06",32595.000,"cc",28301.061,6.00,2830.106,1,6,0.100,18523.000,0.200,12360.000,0.300,1395.000,0.500,211.000,1.000,106.000,5.000,0
"07/08/06","22:08:19","AMMA06",33124.000,"cc",28288.885,6.00,2828.889,1,6,0.100,18643.000,0.200,12655.000,0.300,1430.000,0.500,252.000,1.000,144.000,5.000,0
"07/08/06","22:08:25","AMMA06",32511.000,"cc",28326.041,6.00,2832.604,1,6,0.100,18636.000,0.200,12207.000,0.300,1367.000,0.500,208.000,1.000,93.000,5.000,0
"07/08/06","22:08:31","AMMA06",32279.000,"cc",28323.658,6.00,2832.366,1,6,0.100,18354.000,0.200,12331.000,0.300,1297.000,0.500,204.000,1.000,93.000,5.000,0
"07/08/06","22:08:37","AMMA06",32110.000,"cc",28324.580,6.00,2832.458,1,6,0.100,18409.000,0.200,12146.000,0.300,1285.000,0.500,168.000,1.000,102.000,5.000,0
"07/08/06","22:08:43","AMMA06",32186.000,"cc",28340.400,6.00,2834.040,1,6,0.100,18281.000,0.200,12288.000,0.300,1346.000,0.500,170.000,1.000,101.000,5.000,0
"07/08/06","22:08:49","AMMA06",32420.000,"cc",28305.924,6.00,2830.593,1,6,0.100,18604.000,0.200,12255.000,0.300,1272.000,0.500,178.000,1.000,111.000,5.000,0
"07/08/06","22:08:55","AMMA06",31896.000,"cc",28306.865,6.00,2830.687,1,6,0.100,18461.000,0.200,11912.000,0.300,1252.000,0.500,172.000,1.000,99.000,5.000,0
"07/08/06","22:09:01","AMMA06",31659.000,"cc",28317.057,6.00,2831.706,1,6,0.100,18204.000,0.200,11995.000,0.300,1219.000,0.500,152.000,1.000,89.000,5.000,0
"07/08/06","22:09:07","AMMA06",32281.000,"cc",28297.438,6.00,2829.744,1,6,0.100,18549.000,0.200,12119.000,0.300,1327.000,0.500,185.000,1.000,101.000,5.000,0
"07/08/06","22:09:13","AMMA06",33057.000,"cc",28296.172,6.00,2829.617,1,6,0.100,18698.000,0.200,12418.000,0.300,1467.000,0.500,324.000,1.000,150.000,5.000,0
"07/08/06","22:09:19","AMMA06",32585.000,"cc",28273.418,6.00,2827.342,1,6,0.100,18631.000,0.200,12100.000,0.300,1437.000,0.500,273.000,1.000,144.000,5.000,0
"07/08/06","22:09:25","AMMA06",32672.000,"cc",28341.070,6.00,2834.107,1,6,0.100,18447.000,0.200,12318.000,0.300,1463.000,0.500,302.000,1.000,142.000,5.000,0
"07/08/06","22:09:31","AMMA06",32948.000,"cc",28287.291,6.00,2828.729,1,6,0.100,18702.000,0.200,12282.000,0.300,1506.000,0.500,328.000,1.000,130.000,5.000,0
"07/08/06","22:09:37","AMMA06",32526.000,"cc",28329.969,6.00,2832.997,1,6,0.100,18516.000,0.200,12326.000,0.300,1315.000,0.500,236.000,1.000,133.000,5.000,0
"07/08/06","22:09:43","AMMA06",31615.000,"cc",28366.836,6.00,2836.684,1,6,0.100,17959.000,0.200,12051.000,0.300,1314.000,0.500,175.000,1.000,115.000,5.000,1.000
"07/08/06","22:09:49","AMMA06",31138.000,"cc",28319.053,6.00,2831.906,1,6,0.100,18050.000,0.200,11642.000,0.300,1227.000,0.500,132.000,1.000,87.000,5.000,0
"07/08/06","22:09:55","AMMA06",30935.000,"cc",28270.594,6.00,2827.060,1,6,0.100,17695.000,0.200,11782.000,0.300,1239.000,0.500,113.000,1.000,106.000,5.000,0
"07/08/06","22:10:01","AMMA06",31129.000,"cc",28303.856,6.00,2830.386,1,6,0.100,17981.000,0.200,11698.000,0.300,1206.000,0.500,152.000,1.000,92.000,5.000,0
"07/08/06","22:10:07","AMMA06",31032.000,"cc",28351.176,6.00,2835.118,1,6,0.100,17790.000,0.200,11782.000,0.300,1221.000,0.500,148.000,1.000,91.000,5.000,0
"07/08/06","22:10:13","AMMA06",31051.000,"cc",28397.195,6.00,2839.720,1,6,0.100,17908.000,0.200,11677.000,0.300,1231.000,0.500,149.000,1.000,86.000,5.000,0
"07/08/06","22:10:19","AMMA06",31920.000,"cc",28283.926,6.00,2828.393,1,6,0.100,18128.000,0.200,12147.000,0.300,1346.000,0.500,196.000,1.000,103.000,5.000,0
"07/08/06","22:10:25","AMMA06",31438.000,"cc",28304.424,6.00,2830.443,1,6,0.100,18098.000,0.200,11826.000,0.300,1232.000,0.500,176.000,1.000,106.000,5.000,0
"07/08/06","22:10:31","AMMA06",31541.000,"cc",28294.565,6.00,2829.457,1,6,0.100,18053.000,0.200,11945.000,0.300,1253.000,0.500,192.000,1.000,98.000,5.000,0
"07/08/06","22:10:37","AMMA06",31748.000,"cc",28330.586,6.00,2833.059,1,6,0.100,18146.000,0.200,12064.000,0.300,1251.000,0.500,190.000,1.000,97.000,5.000,0
"07/08/06","22:10:43","AMMA06",32096.000,"cc",28350.535,6.00,2835.054,1,6,0.100,18318.000,0.200,12046.000,0.300,1381.000,0.500,239.000,1.000,112.000,5.000,0
"07/08/06","22:10:49","AMMA06",31304.000,"cc",28299.822,6.00,2829.982,1,6,0.100,17979.000,0.200,11833.000,0.300,1195.000,0.500,172.000,1.000,125.000,5.000,0
"07/08/06","22:10:55","AMMA06",32283.000,"cc",28289.707,6.00,2828.971,1,6,0.100,18610.000,0.200,12099.000,0.300,1295.000,0.500,179.000,1.000,100.000,5.000,0
"07/08/06","22:11:01","AMMA06",31523.000,"cc",28303.592,6.00,2830.359,1,6,0.100,18170.000,0.200,11901.000,0.300,1183.000,0.500,173.000,1.000,96.000,5.000,0
"07/08/06","22:11:07","AMMA06",31626.000,"cc",28329.664,6.00,2832.967,1,6,0.100,18187.000,0.200,11914.000,0.300,1253.000,0.500,163.000,1.000,109.000,5.000,0
"07/08/06","22:11:13","AMMA06",31238.000,"cc",28308.006,6.00,2830.801,1,6,0.100,18051.000,0.200,11800.000,0.300,1157.000,0.500,153.000,1.000,77.000,5.000,0
"07/08/06","22:11:19","AMMA06",31988.000,"cc",28281.619,6.00,2828.162,1,6,0.100,18267.000,0.200,12123.000,0.300,1299.000,0.500,183.000,1.000,116.000,5.000,0
"07/08/06","22:11:25","AMMA06",32101.000,"cc",28314.471,6.00,2831.447,1,6,0.100,18244.000,0.200,12201.000,0.300,1348.000,0.500,186.000,1.000,122.000,5.000,0
"07/08/06","22:11:31","AMMA06",31513.000,"cc",28367.225,6.00,2836.723,1,6,0.100,18105.000,0.200,11827.000,0.300,1291.000,0.500,182.000,1.000,108.000,5.000,0
"07/08/06","22:11:37","AMMA06",29580.000,"cc",28346.637,6.00,2834.664,1,6,0.100,17356.000,0.200,10794.000,0.300,1160.000,0.500,184.000,1.000,86.000,5.000,0
"07/08/06","22:11:43","AMMA06",28899.000,"cc",28307.760,6.00,2830.776,1,6,0.100,17046.000,0.200,10431.000,0.300,1137.000,0.500,172.000,1.000,113.000,5.000,0
"07/08/06","22:11:49","AMMA06",28621.000,"cc",28321.629,6.00,2832.163,1,6,0.100,16905.000,0.200,10338.000,0.300,1063.000,0.500,214.000,1.000,101.000,5.000,0
"07/08/06","22:11:55","AMMA06",28771.000,"cc",28280.469,6.00,2828.047,1,6,0.100,17111.000,0.200,10216.000,0.300,1116.000,0.500,208.000,1.000,120.000,5.000,0
"07/08/06","22:12:01","AMMA06",28601.000,"cc",28304.424,6.00,2830.443,1,6,0.100,16839.000,0.200,10409.000,0.300,1081.000,0.500,165.000,1.000,107.000,5.000,0
"07/08/06","22:12:07","AMMA06",28925.000,"cc",28304.527,6.00,2830.453,1,6,0.100,17178.000,0.200,10397.000,0.300,1085.000,0.500,165.000,1.000,100.000,5.000,0
"07/08/06","22:12:13","AMMA06",28773.000,"cc",28348.473,6.00,2834.847,1,6,0.100,16973.000,0.200,10464.000,0.300,1081.000,0.500,150.000,1.000,105.000,5.000,0
"07/08/06","22:12:19","AMMA06",29261.000,"cc",28329.141,6.00,2832.914,1,6,0.100,17257.000,0.200,10651.000,0.300,1115.000,0.500,149.000,1.000,89.000,5.000,0
"07/08/06","22:12:25","AMMA06",28883.000,"cc",28276.494,6.00,2827.650,1,6,0.100,16999.000,0.200,10542.000,0.300,1108.000,0.500,145.000,1.000,89.000,5.000,0
"07/08/06","22:12:31","AMMA06",28814.000,"cc",28338.543,6.00,2833.855,1,6,0.100,16968.000,0.200,10546.000,0.300,1062.000,0.500,140.000,1.000,98.000,5.000,0
"07/08/06","22:12:37","AMMA06",27390.000,"cc",28311.629,6.00,2831.163,1,6,0.100,16305.000,0.200,9828.000,0.300,1037.000,0.500,151.000,1.000,69.000,5.000,0
"07/08/06","22:12:43","AMMA06",27417.000,"cc",28318.061,6.00,2831.806,1,6,0.100,16334.000,0.200,9782.000,0.300,1096.000,0.500,132.000,1.000,73.000,5.000,0
"07/08/06","22:12:49","AMMA06",27320.000,"cc",28343.973,6.00,2834.398,1,6,0.100,16169.000,0.200,9874.000,0.300,1054.000,0.500,130.000,1.000,93.000,5.000,0
"07/08/06","22:12:55","AMMA06",26776.000,"cc",28291.109,6.00,2829.111,1,6,0.100,15826.000,0.200,9717.000,0.300,1021.000,0.500,136.000,1.000,76.000,5.000,0
"07/08/06","22:13:01","AMMA06",26904.000,"cc",28373.656,6.00,2837.366,1,6,0.100,15971.000,0.200,9690.000,0.300,1010.000,0.500,142.000,1.000,91.000,5.000,0
"07/08/06","22:13:07","AMMA06",26104.000,"cc",28299.203,6.00,2829.920,1,6,0.100,15565.000,0.200,9314.000,0.300,1017.000,0.500,129.000,1.000,79.000,5.000,0
"07/08/06","22:13:13","AMMA06",26262.000,"cc",28346.879,6.00,2834.688,1,6,0.100,15676.000,0.200,9397.000,0.300,985.000,0.500,119.000,1.000,85.000,5.000,0
"07/08/06","22:13:19","AMMA06",26153.000,"cc",28299.219,6.00,2829.922,1,6,0.100,15609.000,0.200,9373.000,0.300,948.000,0.500,135.000,1.000,88.000,5.000,0
"07/08/06","22:13:25","AMMA06",26204.000,"cc",28269.072,6.00,2826.908,1,6,0.100,15497.000,0.200,9540.000,0.300,946.000,0.500,133.000,1.000,88.000,5.000,0
"07/08/06","22:13:31","AMMA06",26006.000,"cc",28332.734,6.00,2833.274,1,6,0.100,15419.000,0.200,9388.000,0.300,981.000,0.500,139.000,1.000,79.000,5.000,0
"07/08/06","22:13:37","AMMA06",26277.000,"cc",28336.824,6.00,2833.683,1,6,0.100,15628.000,0.200,9413.000,0.300,980.000,0.500,154.000,1.000,102.000,5.000,0
"07/08/06","22:13:43","AMMA06",26145.000,"cc",28281.895,6.00,2828.190,1,6,0.100,15644.000,0.200,9338.000,0.300,942.000,0.500,132.000,1.000,89.000,5.000,0
"07/08/06","22:13:49","AMMA06",26314.000,"cc",28327.059,6.00,2832.706,1,6,0.100,15517.000,0.200,9545.000,0.300,1016.000,0.500,143.000,1.000,93.000,5.000,0
"07/08/06","22:13:55","AMMA06",26424.000,"cc",28293.119,6.00,2829.312,1,6,0.100,15834.000,0.200,9385.000,0.300,1004.000,0.500,115.000,1.000,86.000,5.000,0
"07/08/06","22:14:01","AMMA06",26601.000,"cc",28318.258,6.00,2831.826,1,6,0.100,15804.000,0.200,9493.000,0.300,1039.000,0.500,170.000,1.000,95.000,5.000,0
"07/08/06","22:14:07","AMMA06",26606.000,"cc",28332.924,6.00,2833.293,1,6,0.100,15834.000,0.200,9589.000,0.300,969.000,0.500,126.000,1.000,88.000,5.000,0
"07/08/06","22:14:13","AMMA06",26605.000,"cc",28381.969,6.00,2838.197,1,6,0.100,15755.000,0.200,9605.000,0.300,1040.000,0.500,111.000,1.000,94.000,5.000,0
"07/08/06","22:14:19","AMMA06",26271.000,"cc",28357.328,6.00,2835.733,1,6,0.100,15639.000,0.200,9437.000,0.300,990.000,0.500,127.000,1.000,78.000,5.000,0